HAN590 YSSY-ZWSH

Flight info

Callsign HAN590
Flight time N/A
Altitude 34000
Route RIC H530 SURVO R340 AMN A461 ZAM A583 LEGED/N0498F360 A583 BIGEX/N0499F350 A461 BEKOL/K0919S1100 A461 SHL W22 TEPID W24 OSNOV G586 QP B330 ELKAL W179 RIRKI W232 WFX/K0900S1160 W179 OMBON Y1 SADAN W186 KQS W176 PUBUR PUBUR8R
Aircraft A35K/H-SDE2E3GHIJ3J4J5LM1ORWXY/LB1D1

Departure

Time 2026-04-26 03:32
Airport Sydney Kingsford Smith International Airport (YSSY)

Arrival

Time N/A
Airport Kashgar Laining International Airport (ZWSH)
Time Latitude Longitude Altitude Speed Heading
2026-04-26 02:06 -33.94027 151.16541 36 ft 0 kts 344°
2026-04-26 03:20 -33.94035 151.16543 59 ft 4 kts 346°
2026-04-26 03:20 -33.94061 151.16549 35 ft 4 kts 355°
2026-04-26 03:20 -33.94088 151.16550 35 ft 4 kts
2026-04-26 03:21 -33.94114 151.16543 34 ft 4 kts 26°
2026-04-26 03:21 -33.94135 151.16525 33 ft 4 kts 64°
2026-04-26 03:21 -33.94138 151.16517 32 ft 0 kts 74°
2026-04-26 03:23 -33.94136 151.16523 35 ft 0 kts 74°
2026-04-26 03:24 -33.94122 151.16582 36 ft 15 kts 74°
2026-04-26 03:24 -33.94094 151.16704 36 ft 16 kts 74°
2026-04-26 03:24 -33.94062 151.16836 36 ft 17 kts 73°
2026-04-26 03:25 -33.94028 151.16979 35 ft 18 kts 73°
2026-04-26 03:25 -33.93991 151.17131 35 ft 19 kts 75°
2026-04-26 03:25 -33.94010 151.17225 35 ft 12 kts 142°
2026-04-26 03:25 -33.94096 151.17259 34 ft 15 kts 166°
2026-04-26 03:26 -33.94204 151.17288 34 ft 17 kts 168°
2026-04-26 03:26 -33.94324 151.17317 36 ft 18 kts 168°
2026-04-26 03:26 -33.94456 151.17351 36 ft 20 kts 167°
2026-04-26 03:26 -33.94589 151.17385 36 ft 20 kts 168°
2026-04-26 03:27 -33.94722 151.17420 36 ft 20 kts 168°
2026-04-26 03:27 -33.94860 151.17456 35 ft 21 kts 168°
2026-04-26 03:27 -33.95001 151.17493 35 ft 21 kts 167°
2026-04-26 03:27 -33.95142 151.17530 35 ft 21 kts 167°
2026-04-26 03:28 -33.95285 151.17567 35 ft 21 kts 168°
2026-04-26 03:28 -33.95428 151.17605 35 ft 21 kts 168°
2026-04-26 03:28 -33.95571 151.17642 35 ft 21 kts 167°
2026-04-26 03:28 -33.95714 151.17679 36 ft 21 kts 168°
2026-04-26 03:29 -33.95857 151.17716 36 ft 21 kts 168°
2026-04-26 03:29 -33.96001 151.17753 36 ft 21 kts 168°
2026-04-26 03:29 -33.96145 151.17790 36 ft 21 kts 168°
2026-04-26 03:29 -33.96291 151.17827 36 ft 21 kts 168°
2026-04-26 03:30 -33.96416 151.17876 36 ft 18 kts 136°
2026-04-26 03:30 -33.96430 151.17921 36 ft 0 kts 94°
2026-04-26 03:31 -33.96430 151.17922 36 ft 0 kts 94°
2026-04-26 03:31 -33.96430 151.17936 36 ft 4 kts 91°
2026-04-26 03:31 -33.96419 151.18005 35 ft 12 kts 65°
2026-04-26 03:31 -33.96349 151.18041 35 ft 11 kts 357°
2026-04-26 03:32 -33.96214 151.18012 34 ft 47 kts 348°
2026-04-26 03:32 -33.95642 151.17859 35 ft 120 kts 348°
2026-04-26 03:32 -33.94610 151.17590 88 ft 177 kts 349°
2026-04-26 03:32 -33.93460 151.17322 1060 ft 161 kts 351°
2026-04-26 03:33 -33.92396 151.17084 1998 ft 153 kts 351°
2026-04-26 03:33 -33.91395 151.16651 2220 ft 167 kts 324°
2026-04-26 03:33 -33.90644 151.15457 2255 ft 189 kts 303°
2026-04-26 03:33 -33.89885 151.14095 2466 ft 203 kts 308°
2026-04-26 03:34 -33.88967 151.12718 2642 ft 219 kts 313°
2026-04-26 03:34 -33.87904 151.11293 2845 ft 238 kts 315°
2026-04-26 03:34 -33.86722 151.09818 3125 ft 250 kts 316°
2026-04-26 03:34 -33.85484 151.08309 3579 ft 255 kts 316°
2026-04-26 03:35 -33.84226 151.06780 4083 ft 258 kts 317°
2026-04-26 03:35 -33.82954 151.05252 4631 ft 259 kts 317°
2026-04-26 03:35 -33.81673 151.03721 5162 ft 262 kts 316°
2026-04-26 03:35 -33.80360 151.02155 5588 ft 269 kts 317°
2026-04-26 03:36 -33.79023 151.00558 6092 ft 273 kts 315°
2026-04-26 03:36 -33.77665 150.98940 6608 ft 278 kts 316°
2026-04-26 03:36 -33.76278 150.97301 7108 ft 281 kts 316°
2026-04-26 03:36 -33.74884 150.95649 7680 ft 283 kts 316°
2026-04-26 03:37 -33.73479 150.93978 8239 ft 285 kts 316°
2026-04-26 03:37 -33.72062 150.92294 8822 ft 288 kts 316°
2026-04-26 03:37 -33.70633 150.90598 9414 ft 290 kts 316°
2026-04-26 03:37 -33.69192 150.88888 9980 ft 293 kts 316°
2026-04-26 03:38 -33.67716 150.87139 10316 ft 305 kts 316°
2026-04-26 03:38 -33.66193 150.85336 10540 ft 319 kts 316°
2026-04-26 03:38 -33.64578 150.83424 10780 ft 333 kts 316°
2026-04-26 03:38 -33.62894 150.81432 11004 ft 347 kts 316°
2026-04-26 03:39 -33.61143 150.79363 11235 ft 360 kts 316°
2026-04-26 03:39 -33.59331 150.77223 11459 ft 372 kts 316°
2026-04-26 03:39 -33.57446 150.75024 11661 ft 384 kts 316°
2026-04-26 03:39 -33.55501 150.72769 11914 ft 393 kts 316°
2026-04-26 03:40 -33.53523 150.70478 12314 ft 398 kts 317°
2026-04-26 03:40 -33.51520 150.68163 12753 ft 401 kts 316°
2026-04-26 03:40 -33.49512 150.65838 13266 ft 403 kts 316°
2026-04-26 03:40 -33.47487 150.63495 13713 ft 406 kts 316°
2026-04-26 03:41 -33.45450 150.61142 14163 ft 408 kts 316°
2026-04-26 03:41 -33.43402 150.58777 14579 ft 410 kts 317°
2026-04-26 03:41 -33.41339 150.56398 14969 ft 413 kts 317°
2026-04-26 03:41 -33.39263 150.54007 15399 ft 415 kts 317°
2026-04-26 03:42 -33.37172 150.51602 15775 ft 419 kts 317°
2026-04-26 03:42 -33.35070 150.49176 16219 ft 421 kts 317°
2026-04-26 03:42 -33.32961 150.46741 16646 ft 423 kts 317°
2026-04-26 03:42 -33.30832 150.44291 17050 ft 426 kts 317°